星链-34288 (STARLINK-34288)

导读

STARLINK-34288是美国于2025年6月28日发射的星链系列卫星,星链计划是美国太空探索技术公司(SpaceX)推出的低轨卫星互联网星座项目,旨在构建全球卫星互联网,为全球偏远地区等提供高速网络接入服务,该卫星入轨后将与其他星链卫星协同,进一步完善星座网络覆盖与服务能力。

基本信息
目录编号:
64673
目录名称:
STARLINK-34288
国际标识:
2025-139K
轨道中心:
EARTH
卫星名称:
星链-34288
卫星全名:
星链-34288 (STARLINK-34288)
卫星状态:
在轨 (已飞行434 天)
发射日期:
2025-06-28 UTC
国别 :
美国 (US)
星等 :
--
轨道信息
数据来源 国际轨道数据
星历时间: 2026-09-05T09:32:30+0800
11小时前
查看轨道信息
半长轴: 6840.847km
偏心率: 0.0001053
轨道倾角: 53.160°
近地点辐角 76.497°
升交点赤经 9.861°
平近点角 283.615°
近地点: 461.989km
远地点: 463.431km
周期: 93.848分钟
每日圈数: 15.34398
详细信息
固有亮度:
5
最大亮度:
2.5
卫星平台:
Starlink V1.0
覆盖范围:
全球
运营商:
太空探索技术公司
运营商所在国:
美国
制造商(研发单位):
太空探索技术公司
制造商所在国:
美国
使用方式:
暂无
卫星简介
Starlink 计划是 SpaceX 推出的全球卫星互联网项目,通过发射低轨道卫星,为全球尤其是偏远地区提供高速、低延迟的互联网服务。自 2019 年起,Starlink 已部署数千颗卫星,旨在缩小全球数字鸿沟,推动互联网普及。该项目还为军事、航空等行业提供通信支持,带来广泛经济效益。
2D轨道图
3D轨道图
轨道高度分析图
轨道倾角分析图
轨道综合分析图
查看轨道综合分析图
交会数据列表
事件ID 空间交会对象 最接近时刻(TCA) 交会距离 交会风险概率(CRP) 交会风险指数(CRI) 操作
CDM_260907-145206-467306-600521
2026-09-07T
14:52:00+0000
0.371 km
远距离
1.471122E-4 高风险 0.78
CDM_260907-131806-467306-600521
2026-09-07T
13:18:13+0000
2.639 km
极远距离
5.869002E-7 极低风险 0.3